Temp
11 11 10 10 9 8 7 6 6 5 5 3 3 4 4 3 2 1 1 0 -0 -0
11 10 9 8 7 7 6 6 5 4 4 2 3 3 3 2 1 0 -0 -1 -1 -1
10 9 8 7 7 6 6 6 4 3 1 2 2 2 2 1 0 -0 -1 -1 -2 -3
10 9 8 7 7 6 4 4 3 3 2 2 2 2 1 0 -0 -1 -1 -2 -3 -3
10 9 8 7 6 5 4 4 3 2 2 2 1 1 0 -1 -1 -1 -2 -3 -3 -4
9 8 7 7 6 3 3 2 2 2 2 1 1 0 -1 -1 -1 -2 -2 -3 -3 -4
8 7 7 6 4 3 2 2 2 1 1 1 0 -1 -1 -1 -2 -2 -2 -3 -4 -4
7 5 4 4 3 2 1 1 1 0 0 0 -0 -1 -1 -1 -2 -2 -3 -3 -4 -4
5 5 4 3 1 -0 -1 -1 -1 1 -0 -0 -1 -1 -2 -2 -2 -3 -4 -4 -4 -4
4 4 2 -0 -1 -2 -1 -1 -1 -0 -1 -1 -1 -1 -2 -2 -3 -3 -4 -4 -5 -5
2 1 -1 -2 -1 -0 -1 -1 0 -1 -1 -1 -2 -2 -2 -3 -3 -4 -4 -5 -5 -6
0 -1 -0 0 0 -0 -1 -1 -1 -1 -1 -2 -2 -2 -3 -3 -4 -4 -5 -5 -6 -7
-0 0 0 -1 -1 -1 -1 -1 -2 -2 -2 -2 -3 -3 -3 -4 -4 -5 -5 -6 -6 -7
-0 -1 -1 -1 -1 -1 -2 -2 -2 -2 -3 -3 -3 -3 -4 -4 -5 -5 -6 -6 -6 -7
Height
1536 1538 1540 1542 1543 1544 1545 1546 1544 1546 1547 1548 1547 1541 1538 1537 1536 1534 1532 1533 1531 1528
1532 1534 1536 1539 1541 1542 1543 1542 1544 1543 1540 1542 1541 1537 1533 1532 1531 1530 1529 1529 1527 1525
1531 1533 1534 1536 1538 1539 1540 1537 1538 1537 1538 1537 1535 1533 1531 1529 1528 1526 1526 1524 1522 1520
1527 1530 1531 1532 1533 1534 1531 1533 1533 1531 1532 1533 1531 1529 1527 1525 1524 1523 1521 1520 1518 1516
1521 1523 1525 1526 1527 1527 1527 1528 1527 1529 1529 1529 1527 1526 1524 1523 1521 1519 1517 1514 1513 1511
1516 1518 1520 1521 1521 1521 1523 1523 1524 1525 1525 1524 1522 1522 1521 1519 1517 1515 1513 1511 1509 1508
1511 1513 1515 1514 1515 1515 1516 1518 1521 1522 1521 1519 1517 1516 1515 1514 1513 1511 1508 1506 1505 1503
1511 1512 1512 1512 1510 1511 1513 1514 1517 1517 1516 1515 1513 1511 1510 1509 1507 1505 1504 1502 1500 1498
1504 1505 1506 1509 1509 1510 1509 1510 1512 1511 1510 1509 1508 1506 1505 1504 1502 1501 1498 1496 1494 1493
1505 1503 1505 1506 1504 1503 1506 1508 1506 1505 1504 1502 1502 1501 1499 1497 1496 1495 1492 1490 1488 1486
1499 1499 1497 1498 1503 1502 1501 1501 1500 1499 1498 1497 1496 1495 1493 1491 1490 1488 1487 1485 1482 1481
1491 1494 1500 1498 1498 1497 1497 1498 1496 1494 1493 1492 1490 1488 1486 1486 1484 1481 1480 1479 1476 1475
1499 1498 1494 1495 1496 1496 1494 1492 1491 1489 1488 1485 1483 1482 1481 1479 1477 1475 1474 1472 1470 1469
1495 1495 1494 1493 1493 1491 1489 1488 1486 1484 1482 1479 1478 1477 1475 1473 1470 1468 1467 1465 1465 1463
Wind_Speed
28 25 24 23 25 24 21 18 17 15 18 18 19 19 21 23 21 19 20 21 21 21
29 25 23 23 23 21 17 14 16 14 15 18 24 23 22 21 20 21 23 26 28 27
22 24 23 21 19 20 18 21 14 18 14 20 20 21 22 19 20 24 27 26 21 17
26 24 22 20 19 18 14 18 20 17 17 20 22 22 22 22 23 25 28 21 16 16
28 27 25 21 19 20 25 22 13 19 18 21 23 25 24 22 24 25 26 20 19 17
28 25 23 22 24 17 16 9 18 18 18 22 24 24 21 23 26 25 23 21 19 19
27 23 24 23 22 18 9 12 13 18 19 23 26 21 20 23 26 26 23 20 20 21
22 20 18 17 12 12 8 7 14 14 20 23 23 23 22 25 27 25 22 22 22 23
24 21 19 17 9 6 5 4 13 24 20 23 26 26 26 24 25 25 21 23 23 23
18 16 10 6 6 6 6 16 23 16 23 24 25 25 25 23 23 24 25 23 24 23
15 11 10 6 6 19 19 15 19 23 23 22 27 27 25 23 23 25 26 25 26 21
15 3 11 21 20 11 16 20 17 19 24 27 28 27 23 22 25 26 24 24 23 21
12 24 15 8 13 16 16 18 19 23 26 30 25 23 24 23 26 26 24 21 22 21
16 6 9 13 16 17 19 22 24 25 23 23 24 25 25 25 26 24 22 21 22 21
Wind_Direction
223 226 232 226 213 211 213 212 222 250 276 292 299 299 303 305 307 312 313 307 300 292
218 211 205 200 200 200 211 228 272 272 273 292 296 302 303 307 309 315 314 306 301 302
218 209 209 205 213 229 242 258 252 275 313 295 301 308 309 309 310 311 310 311 309 308
229 225 229 229 236 248 250 254 279 324 299 303 310 312 306 303 306 309 317 312 299 295
236 234 229 233 238 258 266 283 309 289 291 302 309 314 302 301 303 306 315 303 292 290
221 220 226 240 258 236 269 285 276 275 286 304 313 306 299 299 299 304 312 302 295 294
221 231 241 237 229 245 253 252 263 284 306 313 310 306 297 297 296 303 310 295 291 291
216 210 211 220 226 219 212 272 289 311 305 297 304 300 298 295 295 296 301 288 287 292
199 202 214 226 203 220 264 253 293 295 299 298 294 295 295 292 294 290 290 282 285 290
203 208 204 202 224 200 285 280 295 296 282 292 292 294 295 295 287 289 295 286 285 288
186 177 170 147 353 305 284 285 281 281 293 296 297 295 295 293 283 289 293 285 278 290
188 149 333 311 305 296 273 290 298 297 298 296 296 293 295 291 286 288 295 289 283 291
334 318 314 297 279 287 292 301 299 295 294 296 295 293 295 292 291 292 289 289 286 291
300 278 282 291 300 302 299 296 295 297 296 294 294 292 289 291 294 288 283 282 284 287